Tracking 22283 objects as of 28-Jan-2021
HD Live streaming from Space Station
objects crossing your sky now

FR 1

Track FR 1 now!
10-day predictions
FR 1 is classified as:


NORAD ID: 1814
Int'l Code: 1965-101A
Perigee: 674.1 km
Apogee: 683.4 km
Inclination: 75.9 °
Period: 98.2 minutes
Semi major axis: 7049 km
RCS: 0.5793 m2 (medium)
Launch date: December 6, 1965
Source: France (FR)
Launch site: AIR FORCE WESTERN TEST RANGE (AFWTR)
aabbcc
Your satellite tracking list
Your tracking list is empty




NASA's NSSDC Master Catalog

Two Line Element Set (TLE):
1 01814U 65101A   21027.75529418  .00000139  00000-0  27927-4 0  9994
2 01814  75.8681 127.7804 0006567 276.1540  83.8891 14.66701088767434
Source of the keplerian elements: AFSPC